Waarnemingen

Advertentie
Mijn weer
UFS Deutsche Bucht, Duitsland (10007): temperatuur & dauwpunt: 23.03.2017 20:00:00 - 29.03.2017 20:00:00 (CEST)UFS Deutsche Bucht, Duitsland (10007): windsnelheid & windstoten: 23.03.2017 20:00:00 - 29.03.2017 20:00:00 (CEST)UFS Deutsche Bucht, Duitsland (10007): windrichting: 23.03.2017 20:00:00 - 29.03.2017 20:00:00 (CEST)UFS Deutsche Bucht, Duitsland (10007): luchtdruk: 23.03.2017 20:00:00 - 29.03.2017 20:00:00 (CEST)UFS Deutsche Bucht, Duitsland (10007): zicht: 23.03.2017 20:00:00 - 29.03.2017 20:00:00 (CEST)UFS Deutsche Bucht, Duitsland (10007): Zonneschijnduur: 23.03.2017 20:00:00 - 29.03.2017 20:00:00 (CEST)
Datum & Tijd tt [°C] td [°C] ff [km/u] ff [kn] fx [km/u] fx [kn] dd ppp [hPa] vv [km] sd [min]
29.03.2017 20:00:00 6,4 6,4 7 4 - - WZW 1021,4 0,1 0
29.03.2017 19:00:00 6,4 6,4 7 4 - - WZW 1020,9 0,2 -
29.03.2017 18:00:00 6,5 6,5 11 6 - - WZW 1020,6 0,9 0
29.03.2017 17:00:00 6,9 6,8 14 8 - - WZW 1020,5 0,8 0
29.03.2017 16:00:00 7,3 7,3 22 12 - - WZW 1020,4 3,4 0
29.03.2017 15:00:00 6,9 6,9 18 10 - - W 1020,3 0,6 0
29.03.2017 14:00:00 7,1 7,1 25 14 - - W 1020,2 0,5 0
29.03.2017 13:00:00 7,4 7,4 29 16 - - WZW 1020,2 1,6 0
29.03.2017 12:00:00 7,5 7,5 32 18 - - WZW 1019,7 5 42
29.03.2017 11:00:00 7,4 7,1 32 18 - - WZW 1019,2 7 30
29.03.2017 10:00:00 7,4 7,0 32 18 - - WZW 1018,7 7 6
29.03.2017 09:00:00 7,5 7,0 29 16 - - WZW 1018,3 7 0
29.03.2017 08:00:00 - - - - - - - - - -
29.03.2017 07:00:00 7,1 7,1 32 18 - - ZW 1017,5 5 0
29.03.2017 06:00:00 - 6,9 32 18 - - ZW 1017,3 2,9 0
29.03.2017 05:00:00 6,9 6,9 32 18 - - ZW 1017,7 2,9 0
29.03.2017 04:00:00 6,9 6,9 25 14 - - ZW 1017,5 2,4 0
29.03.2017 03:00:00 6,8 6,8 22 12 - - WZW 1017,9 1,6 0
29.03.2017 02:00:00 6,6 6,6 14 8 - - ZW 1018,0 3,5 0
29.03.2017 01:00:00 3,1 3,1 0 0 - - ONO 1018,2 0,8 0
29.03.2017 00:00:00 2,5 2,5 4 2 - - W 1018,7 0,1 0
28.03.2017 23:00:00 3,0 3,0 11 6 - - W 1019,1 0,1 0
28.03.2017 22:00:00 3,0 3,0 7 4 - - ZZW 1019,1 0,2 0
28.03.2017 21:00:00 3,1 3,1 4 2 - - WNW 1019,3 0,1 0
28.03.2017 20:00:00 3,4 3,4 11 6 - - W 1019,3 0,1 0
28.03.2017 19:00:00 3,7 3,7 11 6 - - W 1019,2 0,1 18
28.03.2017 18:00:00 4,4 4,2 11 6 11 6 WZW 1019,3 0,4 60
28.03.2017 17:00:00 7,2 7,0 4 2 - - WNW 1019,3 7 60
28.03.2017 16:00:00 8,2 8,1 0 0 - - NW 1019,5 10 60
28.03.2017 15:00:00 7,0 6,9 11 6 - - NW 1019,7 8 60
28.03.2017 14:00:00 6,4 6,2 4 2 - - NNW 1020,0 10 60
28.03.2017 13:00:00 6,3 6,3 0 0 - - N 1020,2 8 60
28.03.2017 12:00:00 5,9 5,9 4 2 - - NO 1020,6 8 60
28.03.2017 11:00:00 6,7 6,7 7 4 - - ZO 1020,6 8 60
28.03.2017 10:00:00 4,0 4,0 7 4 - - O 1020,5 0,4 42
28.03.2017 09:00:00 3,5 3,5 11 6 - - ONO 1020,5 0,1 6
28.03.2017 08:00:00 3,4 3,4 14 8 - - ONO 1020,3 0,3 0
28.03.2017 07:00:00 2,9 2,9 11 6 - - O 1020,5 0,2 0
28.03.2017 06:00:00 2,9 2,9 14 8 - - ONO 1020,8 0,2 0
28.03.2017 05:00:00 2,9 2,9 14 8 - - ONO 1021,2 0,1 0
28.03.2017 04:00:00 3,0 3,0 11 6 - - ONO 1021,8 0,2 0
28.03.2017 03:00:00 2,9 2,9 14 8 - - NO 1022,4 0,1 0
28.03.2017 02:00:00 3,0 3,0 11 6 - - NO 1022,9 0,1 0
28.03.2017 01:00:00 3,3 3,3 14 8 - - ONO 1023,0 0,1 0
28.03.2017 00:00:00 3,3 3,3 18 10 - - ONO 1023,2 0,1 0
27.03.2017 23:00:00 3,3 3,3 14 8 - - NO 1023,4 0,2 0
27.03.2017 22:00:00 3,5 3,5 11 6 - - NO 1023,7 0,1 0
27.03.2017 21:00:00 3,6 3,6 14 8 - - NO 1023,5 0,1 0
27.03.2017 20:00:00 3,5 3,5 14 8 - - NO 1023,5 0,1 0
27.03.2017 19:00:00 3,6 3,6 14 8 - - NO 1023,9 0,1 0
27.03.2017 18:00:00 3,6 3,5 18 10 - - ONO 1024,2 0,1 0
27.03.2017 17:00:00 3,4 3,4 14 8 - - NO 1024,6 0,1 0
27.03.2017 16:00:00 3,3 3,3 14 8 - - NO 1025,3 0,1 6
27.03.2017 15:00:00 3,6 3,6 14 8 - - NO 1025,9 0,2 0
27.03.2017 14:00:00 3,5 3,5 14 8 - - NO 1026,5 0,3 0
27.03.2017 13:00:00 3,2 3,1 18 10 - - ONO 1026,6 0,2 0
27.03.2017 12:00:00 2,9 2,9 7 4 - - ONO 1026,8 0,1 0
27.03.2017 11:00:00 3,1 3,1 7 4 - - O 1026,9 0,1 0
27.03.2017 10:00:00 2,8 2,8 11 6 - - O 1026,9 0,2 0
27.03.2017 09:00:00 2,6 2,6 11 6 - - O 1027,0 0,2 0
27.03.2017 08:00:00 2,7 2,7 11 6 - - O 1026,8 0,1 0
27.03.2017 07:00:00 2,8 2,8 11 6 - - O 1026,9 0,2 0
27.03.2017 06:00:00 4,2 4,2 11 6 - - O 1026,8 1,0 0
27.03.2017 05:00:00 4,9 4,9 11 6 - - O 1026,8 10 0
27.03.2017 04:00:00 - - - - - - - - - -
27.03.2017 03:00:00 4,9 4,8 7 4 - - ONO 1027,3 10 0
27.03.2017 02:00:00 5,0 4,8 7 4 - - NO 1027,6 10 0
27.03.2017 01:00:00 5,0 4,7 7 4 - - NNO 1027,8 10 0
27.03.2017 00:00:00 5,2 4,8 7 4 - - NO 1027,7 10 0
26.03.2017 23:00:00 5,1 4,7 11 6 - - NO 1027,7 10 0
26.03.2017 22:00:00 5,0 4,4 11 6 - - ONO 1027,4 10 0
26.03.2017 21:00:00 4,9 4,2 14 8 - - NNO 1027,6 10 0
26.03.2017 20:00:00 4,6 3,8 11 6 - - NNO 1027,4 10 0
26.03.2017 19:00:00 4,8 3,6 7 4 - - NO 1027,6 10 0
26.03.2017 18:00:00 4,9 3,8 7 4 - - NNO 1027,7 10 0
26.03.2017 17:00:00 4,8 4,1 7 4 - - NO 1028,0 10 0
26.03.2017 16:00:00 5,1 4,6 7 4 - - N 1028,1 10 0
26.03.2017 15:00:00 4,9 4,7 7 4 - - ONO 1028,4 10 0
26.03.2017 14:00:00 4,9 4,7 7 4 - - NO 1028,2 10 0
26.03.2017 13:00:00 5,1 5,0 7 4 - - ONO 1028,1 10 0
26.03.2017 12:00:00 5,5 5,4 11 6 - - ONO 1027,9 10 24
26.03.2017 11:00:00 5,5 5,4 14 8 - - N 1027,7 6 60
26.03.2017 10:00:00 5,6 5,5 11 6 - - N 1027,5 10 60
26.03.2017 09:00:00 5,6 5,6 11 6 - - N 1027,2 10 60
26.03.2017 08:00:00 5,6 5,6 14 8 - - N 1026,9 10 12
26.03.2017 07:00:00 5,4 5,3 14 8 - - N 1026,6 10 0
26.03.2017 06:00:00 5,6 5,5 14 8 - - N 1027,0 10 0
26.03.2017 05:00:00 5,6 5,1 14 8 - - N 1027,3 10 0
26.03.2017 04:00:00 5,6 5,0 14 8 - - N 1027,5 10 0
26.03.2017 03:00:00 5,7 4,9 11 6 - - NNW 1027,9 10 0
26.03.2017 02:00:00 5,6 5,0 11 6 - - NNW 1028,0 10 0
26.03.2017 01:00:00 5,6 5,6 14 8 - - NW 1028,1 10 0
26.03.2017 00:00:00 5,5 5,5 11 6 - - NW 1028,6 10 0
25.03.2017 23:00:00 5,6 5,6 14 8 - - NW 1029,1 10 0
25.03.2017 22:00:00 5,6 5,6 18 10 - - NW 1029,0 10 0
25.03.2017 21:00:00 5,5 5,5 11 6 - - NNW 1028,8 10 0
25.03.2017 20:00:00 5,7 5,6 18 10 - - NNW 1029,0 10 18
25.03.2017 19:00:00 5,7 5,2 18 10 - - NW 1029,0 10 60
25.03.2017 18:00:00 5,7 5,1 18 10 - - NNW 1029,5 - 60
25.03.2017 17:00:00 5,8 5,2 18 10 - - NNW 1030,2 10 60
25.03.2017 16:00:00 6,0 5,4 18 10 - - NW 1030,9 10 60
25.03.2017 15:00:00 6,0 5,2 18 10 - - NW 1031,9 10 60
25.03.2017 14:00:00 6,0 5,3 18 10 - - NW 1032,6 10 60
25.03.2017 13:00:00 5,8 5,0 18 10 - - NW 1032,9 10 60
25.03.2017 12:00:00 5,7 4,8 18 10 - - WNW 1033,2 10 60
25.03.2017 11:00:00 5,6 4,8 14 8 - - WNW 1033,1 10 60
25.03.2017 10:00:00 5,4 4,8 14 8 - - WNW 1033,1 10 60
25.03.2017 09:00:00 5,3 5,0 14 8 - - WNW 1033,0 10 42
25.03.2017 08:00:00 5,2 5,1 18 10 - - W 1033,0 10 0
25.03.2017 07:00:00 5,0 4,9 14 8 - - W 1033,1 10 0
25.03.2017 06:00:00 4,9 4,8 11 6 - - W 1033,4 10 0
25.03.2017 05:00:00 4,8 4,7 7 4 - - WNW 1034,1 10 0
25.03.2017 04:00:00 4,9 4,6 7 4 - - W 1034,5 10 0
25.03.2017 03:00:00 4,8 4,8 11 6 - - NW 1034,7 10 0
25.03.2017 02:00:00 4,9 4,5 7 4 - - NNW 1034,7 10 0
25.03.2017 01:00:00 5,0 4,4 11 6 - - N 1034,6 10 0
25.03.2017 00:00:00 5,0 4,4 11 6 - - N 1034,7 10 0
24.03.2017 23:00:00 5,1 4,2 14 8 - - N 1034,8 10 0
24.03.2017 22:00:00 5,3 3,8 14 8 - - N 1034,7 10 0
24.03.2017 21:00:00 5,2 3,8 18 10 - - N 1034,2 10 0
24.03.2017 20:00:00 5,3 3,7 14 8 - - N 1034,1 10 6
24.03.2017 19:00:00 5,5 3,7 14 8 - - N 1033,8 10 60
24.03.2017 18:00:00 5,7 4,2 14 8 - - N 1034,0 10 60
24.03.2017 17:00:00 5,6 4,8 11 6 - - N 1034,3 10 60
24.03.2017 16:00:00 - - - - - - - - - -
24.03.2017 15:00:00 - - - - - - - - - -
24.03.2017 14:00:00 5,9 5,4 7 4 - - NNO 1034,1 7 60
24.03.2017 13:00:00 5,9 5,3 7 4 - - NO 1033,8 7 60
24.03.2017 12:00:00 5,4 4,8 11 6 - - NO 1032,8 10 60
24.03.2017 11:00:00 5,4 4,9 14 8 - - NNO 1032,7 10 60
24.03.2017 10:00:00 5,5 4,8 14 8 - - NNO 1032,3 10 60
24.03.2017 09:00:00 5,4 4,5 14 8 - - NNO 1031,8 10 60
24.03.2017 08:00:00 5,3 4,5 11 6 - - NO 1031,4 10 6
24.03.2017 07:00:00 5,4 4,2 14 8 - - NO 1030,7 10 0
24.03.2017 06:00:00 5,6 4,0 18 10 - - NO 1029,9 10 0
24.03.2017 05:00:00 5,1 4,4 11 6 - - NNO 1029,9 10 0
24.03.2017 04:00:00 5,4 4,2 11 6 - - ONO 1029,2 10 0
24.03.2017 03:00:00 5,6 4,3 18 10 - - NO 1028,7 10 0
24.03.2017 02:00:00 5,7 4,4 14 8 - - NO 1028,1 10 0
24.03.2017 01:00:00 5,5 4,4 14 8 - - NO 1027,8 10 0
24.03.2017 00:00:00 6,1 3,9 18 10 - - NNO 1027,4 10 0
23.03.2017 23:00:00 6,1 3,7 14 8 - - NO 1026,9 10 0
23.03.2017 22:00:00 6,4 3,3 18 10 - - NO 1026,2 10 0
23.03.2017 21:00:00 6,8 3,3 22 12 - - ONO 1025,3 10 0
23.03.2017 20:00:00 - - - - - - - - - -

tt = temperatuur
td = dauwpunt
ff = windsnelheid
fx = windstoten
dd = windrichting
ppp = luchtdruk
vv = zicht
sd = Zonneschijnduur

Weerstations in de omgeving